Time,TemperatureF,DewpointF,PressureIn,WindDirection,WindDirectionDegrees,WindSpeedMPH,WindSpeedGustMPH,Humidity,HourlyPrecipIn,Conditions,Clouds,dailyrainin,SoftwareType,DateUTC
2013-06-03 00:00:00,47.3,40.1,30.05,WNW,299,4.0,8.0,76,0.00,,---,0.00,VWS V14.00,2013-06-03 04:00:00,
2013-06-03 00:02:00,47.1,39.9,30.05,West,272,3.0,6.0,76,0.00,,---,0.00,VWS V14.00,2013-06-03 04:02:00,
2013-06-03 00:07:00,46.9,39.7,30.05,WNW,290,2.0,6.0,76,0.00,,---,0.00,VWS V14.00,2013-06-03 04:07:00,
2013-06-03 00:12:00,46.8,40.0,30.05,WNW,286,1.0,6.0,77,0.00,,---,0.00,VWS V14.00,2013-06-03 04:12:00,
2013-06-03 00:17:00,46.6,39.8,30.05,WNW,299,1.0,6.0,77,0.00,,---,0.00,VWS V14.00,2013-06-03 04:17:00,
2013-06-03 00:22:00,46.4,40.2,30.05,WNW,295,3.0,6.0,79,0.00,,---,0.00,VWS V14.00,2013-06-03 04:22:00,
2013-06-03 00:27:00,46.2,40.1,30.05,WNW,288,2.0,4.0,79,0.00,,---,0.00,VWS V14.00,2013-06-03 04:27:00,
2013-06-03 00:30:00,46.2,40.1,30.05,WNW,288,4.0,6.0,79,0.00,,---,0.00,VWS V14.00,2013-06-03 04:30:00,
2013-06-03 00:32:00,46.0,39.9,30.05,WNW,289,0.0,5.0,79,0.00,,---,0.00,VWS V14.00,2013-06-03 04:32:00,
2013-06-03 00:37:00,45.8,39.7,30.05,WNW,289,0.0,5.0,79,0.00,,---,0.00,VWS V14.00,2013-06-03 04:37:00,
2013-06-03 00:42:00,45.7,39.6,30.05,WNW,289,1.0,5.0,79,0.00,,---,0.00,VWS V14.00,2013-06-03 04:42:00,
2013-06-03 00:47:00,45.5,39.7,30.05,WNW,289,3.0,5.0,80,0.00,,---,0.00,VWS V14.00,2013-06-03 04:47:00,
2013-06-03 00:52:00,45.4,39.6,30.06,WNW,289,0.0,5.0,80,0.00,,---,0.00,VWS V14.00,2013-06-03 04:52:00,
2013-06-03 00:57:00,45.2,39.7,30.06,WNW,289,0.0,1.0,81,0.00,,---,0.00,VWS V14.00,2013-06-03 04:57:00,
2013-06-03 01:00:00,45.2,39.7,30.06,WNW,289,1.0,5.0,81,0.00,,---,0.00,VWS V14.00,2013-06-03 05:00:00,
2013-06-03 01:02:00,45.1,39.6,30.06,WNW,289,0.0,3.0,81,0.00,,---,0.00,VWS V14.00,2013-06-03 05:02:00,
2013-06-03 01:07:00,45.0,39.8,30.06,WNW,289,2.0,4.0,82,0.00,,---,0.00,VWS V14.00,2013-06-03 05:07:00,
2013-06-03 01:12:00,44.8,39.7,30.06,WNW,289,1.0,4.0,82,0.00,,---,0.00,VWS V14.00,2013-06-03 05:12:00,
2013-06-03 01:17:00,44.6,39.8,30.06,WNW,290,0.0,4.0,83,0.00,,---,0.00,VWS V14.00,2013-06-03 05:17:00,
2013-06-03 01:22:00,44.4,39.6,30.06,WNW,289,1.0,4.0,83,0.00,,---,0.00,VWS V14.00,2013-06-03 05:22:00,
2013-06-03 01:27:00,44.3,39.8,30.06,WNW,289,1.0,2.0,84,0.00,,---,0.00,VWS V14.00,2013-06-03 05:27:00,
2013-06-03 01:30:00,44.3,39.8,30.06,WNW,290,1.0,4.0,84,0.00,,---,0.00,VWS V14.00,2013-06-03 05:30:00,
2013-06-03 01:32:00,44.2,39.7,30.06,WNW,289,0.0,2.0,84,0.00,,---,0.00,VWS V14.00,2013-06-03 05:32:00,
2013-06-03 01:37:00,44.0,39.5,30.06,WNW,289,1.0,2.0,84,0.00,,---,0.00,VWS V14.00,2013-06-03 05:37:00,
2013-06-03 01:42:00,43.9,39.7,30.06,WNW,290,0.0,2.0,85,0.00,,---,0.00,VWS V14.00,2013-06-03 05:42:00,
2013-06-03 01:47:00,43.8,39.6,30.06,WNW,289,0.0,2.0,85,0.00,,---,0.00,VWS V14.00,2013-06-03 05:47:00,
2013-06-03 01:52:00,43.7,39.5,30.06,WNW,289,1.0,2.0,85,0.00,,---,0.00,VWS V14.00,2013-06-03 05:52:00,
2013-06-03 01:57:00,43.6,39.4,30.06,WNW,290,1.0,1.0,85,0.00,,---,0.00,VWS V14.00,2013-06-03 05:57:00,
2013-06-03 02:00:00,43.6,39.4,30.06,WNW,289,1.0,2.0,85,0.00,,---,0.00,VWS V14.00,2013-06-03 06:00:00,
2013-06-03 02:02:00,43.5,39.3,30.06,WNW,289,0.0,2.0,85,0.00,,---,0.00,VWS V14.00,2013-06-03 06:02:00,
2013-06-03 02:07:00,43.4,39.5,30.06,WNW,289,1.0,2.0,86,0.00,,---,0.00,VWS V14.00,2013-06-03 06:07:00,
2013-06-03 02:12:00,43.4,39.5,30.06,WNW,289,0.0,2.0,86,0.00,,---,0.00,VWS V14.00,2013-06-03 06:12:00,
2013-06-03 02:17:00,43.3,39.4,30.06,WNW,290,0.0,2.0,86,0.00,,---,0.00,VWS V14.00,2013-06-03 06:17:00,
2013-06-03 02:22:00,43.2,39.3,30.06,WNW,289,0.0,2.0,86,0.00,,---,0.00,VWS V14.00,2013-06-03 06:22:00,
2013-06-03 02:27:00,43.2,39.3,30.06,WNW,290,1.0,1.0,86,0.00,,---,0.00,VWS V14.00,2013-06-03 06:27:00,
2013-06-03 02:30:00,43.2,39.3,30.06,WNW,289,0.0,2.0,86,0.00,,---,0.00,VWS V14.00,2013-06-03 06:30:00,
2013-06-03 02:32:00,43.2,39.3,30.06,WNW,289,0.0,3.0,86,0.00,,---,0.00,VWS V14.00,2013-06-03 06:32:00,
2013-06-03 02:37:00,43.0,39.1,30.06,WNW,289,1.0,3.0,86,0.00,,---,0.00,VWS V14.00,2013-06-03 06:37:00,
2013-06-03 02:42:00,42.9,39.3,30.06,WNW,289,0.0,3.0,87,0.00,,---,0.00,VWS V14.00,2013-06-03 06:42:00,
2013-06-03 02:47:00,42.8,39.2,30.06,WNW,290,2.0,3.0,87,0.00,,---,0.00,VWS V14.00,2013-06-03 06:47:00,
2013-06-03 02:52:00,42.7,39.1,30.06,WNW,290,1.0,3.0,87,0.00,,---,0.00,VWS V14.00,2013-06-03 06:52:00,
2013-06-03 02:57:00,42.6,39.0,30.06,WNW,290,1.0,1.0,87,0.00,,---,0.00,VWS V14.00,2013-06-03 06:57:00,
2013-06-03 03:00:00,42.6,39.0,30.06,WNW,289,0.0,3.0,87,0.00,,---,0.00,VWS V14.00,2013-06-03 07:00:00,
2013-06-03 03:02:00,42.6,39.0,30.06,WNW,289,1.0,2.0,87,0.00,,---,0.00,VWS V14.00,2013-06-03 07:02:00,
2013-06-03 03:08:00,42.5,38.9,30.06,WNW,289,0.0,2.0,87,0.00,,---,0.00,VWS V14.00,2013-06-03 07:08:00,
2013-06-03 03:13:00,42.4,38.8,30.06,WNW,290,0.0,2.0,87,0.00,,---,0.00,VWS V14.00,2013-06-03 07:13:00,
2013-06-03 03:18:00,42.4,38.8,30.06,WNW,290,0.0,2.0,87,0.00,,---,0.00,VWS V14.00,2013-06-03 07:18:00,
2013-06-03 03:23:00,42.4,38.8,30.06,WNW,290,0.0,2.0,87,0.00,,---,0.00,VWS V14.00,2013-06-03 07:23:00,
2013-06-03 03:28:00,42.3,38.7,30.06,WNW,290,0.0,0.0,87,0.00,,---,0.00,VWS V14.00,2013-06-03 07:28:00,
2013-06-03 03:30:00,42.4,38.8,30.06,WNW,289,0.0,2.0,87,0.00,,---,0.00,VWS V14.00,2013-06-03 07:30:00,
2013-06-03 03:33:00,42.3,38.7,30.06,WNW,290,0.0,2.0,87,0.00,,---,0.00,VWS V14.00,2013-06-03 07:33:00,
2013-06-03 03:38:00,42.2,38.6,30.06,WNW,289,0.0,3.0,87,0.00,,---,0.00,VWS V14.00,2013-06-03 07:38:00,
2013-06-03 03:43:00,42.2,38.6,30.06,WNW,290,0.0,3.0,87,0.00,,---,0.00,VWS V14.00,2013-06-03 07:43:00,
2013-06-03 03:48:00,42.1,38.8,30.06,WNW,290,1.0,3.0,88,0.00,,---,0.00,VWS V14.00,2013-06-03 07:48:00,
2013-06-03 03:53:00,42.0,38.7,30.06,WNW,289,0.0,3.0,88,0.00,,---,0.00,VWS V14.00,2013-06-03 07:53:00,
2013-06-03 03:58:00,42.0,38.7,30.06,WNW,289,0.0,1.0,88,0.00,,---,0.00,VWS V14.00,2013-06-03 07:58:00,
2013-06-03 04:00:00,42.0,38.7,30.06,WNW,289,0.0,3.0,88,0.00,,---,0.00,VWS V14.00,2013-06-03 08:00:00,
2013-06-03 04:03:00,41.9,38.6,30.06,WNW,289,1.0,1.0,88,0.00,,---,0.00,VWS V14.00,2013-06-03 08:03:00,
2013-06-03 04:08:00,41.7,38.4,30.06,WNW,289,0.0,1.0,88,0.00,,---,0.00,VWS V14.00,2013-06-03 08:08:00,
2013-06-03 04:13:00,41.6,38.6,30.06,WNW,289,0.0,1.0,89,0.00,,---,0.00,VWS V14.00,2013-06-03 08:13:00,
2013-06-03 04:18:00,41.4,38.4,30.06,WNW,289,0.0,1.0,89,0.00,,---,0.00,VWS V14.00,2013-06-03 08:18:00,
2013-06-03 04:23:00,41.3,38.3,30.06,WNW,289,0.0,1.0,89,0.00,,---,0.00,VWS V14.00,2013-06-03 08:23:00,
2013-06-03 04:28:00,41.3,38.3,30.07,WNW,289,0.0,1.0,89,0.00,,---,0.00,VWS V14.00,2013-06-03 08:28:00,
2013-06-03 04:30:00,41.3,38.3,30.07,WNW,290,1.0,2.0,89,0.00,,---,0.00,VWS V14.00,2013-06-03 08:30:00,
2013-06-03 04:33:00,41.2,38.2,30.07,WNW,289,1.0,1.0,89,0.00,,---,0.00,VWS V14.00,2013-06-03 08:33:00,
2013-06-03 04:38:00,41.3,38.3,30.07,WNW,289,0.0,1.0,89,0.00,,---,0.00,VWS V14.00,2013-06-03 08:38:00,
2013-06-03 04:43:00,41.2,38.5,30.07,WNW,289,1.0,2.0,90,0.00,,---,0.00,VWS V14.00,2013-06-03 08:43:00,
2013-06-03 04:48:00,41.2,38.5,30.07,WNW,289,0.0,3.0,90,0.00,,---,0.00,VWS V14.00,2013-06-03 08:48:00,
2013-06-03 04:53:00,41.1,38.4,30.07,WNW,290,2.0,3.0,90,0.00,,---,0.00,VWS V14.00,2013-06-03 08:53:00,
2013-06-03 04:58:00,41.0,38.3,30.07,WNW,289,0.0,1.0,90,0.00,,---,0.00,VWS V14.00,2013-06-03 08:58:00,
2013-06-03 05:00:00,41.0,38.3,30.07,WNW,289,0.0,3.0,90,0.00,,---,0.00,VWS V14.00,2013-06-03 09:00:00,
2013-06-03 05:03:00,40.9,38.2,30.07,WNW,289,0.0,3.0,90,0.00,,---,0.00,VWS V14.00,2013-06-03 09:03:00,
2013-06-03 05:08:00,40.8,38.4,30.07,WNW,289,1.0,3.0,91,0.00,,---,0.00,VWS V14.00,2013-06-03 09:08:00,
2013-06-03 05:13:00,40.7,38.3,30.07,WNW,289,0.0,3.0,91,0.00,,---,0.00,VWS V14.00,2013-06-03 09:13:00,
2013-06-03 05:18:00,40.6,38.2,30.07,WNW,289,1.0,3.0,91,0.00,,---,0.00,VWS V14.00,2013-06-03 09:18:00,
2013-06-03 05:23:00,40.5,38.1,30.07,WNW,289,1.0,3.0,91,0.00,,---,0.00,VWS V14.00,2013-06-03 09:23:00,
2013-06-03 05:28:00,40.4,38.0,30.08,WNW,289,0.0,1.0,91,0.00,,---,0.00,VWS V14.00,2013-06-03 09:28:00,
2013-06-03 05:30:00,40.4,38.0,30.08,WNW,289,0.0,3.0,91,0.00,,---,0.00,VWS V14.00,2013-06-03 09:30:00,
2013-06-03 05:33:00,40.4,38.0,30.08,WNW,289,0.0,2.0,91,0.00,,---,0.00,VWS V14.00,2013-06-03 09:33:00,
2013-06-03 05:38:00,40.3,37.9,30.08,WNW,290,0.0,2.0,91,0.00,,---,0.00,VWS V14.00,2013-06-03 09:38:00,
2013-06-03 05:43:00,40.2,37.8,30.08,WNW,290,0.0,2.0,91,0.00,,---,0.00,VWS V14.00,2013-06-03 09:43:00,
2013-06-03 05:45:00,40.2,37.8,30.08,WNW,290,0.0,2.0,91,0.00,,---,0.00,VWS V14.00,2013-06-03 09:45:00,
2013-06-03 05:48:00,40.2,37.8,30.08,WNW,290,0.0,2.0,91,0.00,,---,0.00,VWS V14.00,2013-06-03 09:48:00,
2013-06-03 05:53:00,40.2,37.8,30.08,WNW,290,0.0,2.0,91,0.00,,---,0.00,VWS V14.00,2013-06-03 09:53:00,
2013-06-03 11:54:00,57.6,42.0,30.11,West,276,5.0,8.0,56,0.00,,---,0.00,VWS V14.00,2013-06-03 15:54:00,
2013-06-03 11:59:00,57.7,41.2,30.11,WSW,253,5.0,7.0,54,0.00,,---,0.00,VWS V14.00,2013-06-03 15:59:00,
2013-06-03 12:00:00,57.7,41.7,30.11,WNW,296,4.0,14.0,55,0.00,,---,0.00,VWS V14.00,2013-06-03 16:00:00,
2013-06-03 12:04:00,57.9,41.8,30.11,WSW,252,6.0,10.0,55,0.00,,---,0.00,VWS V14.00,2013-06-03 16:04:00,
2013-06-03 12:09:00,58.5,41.5,30.11,NNW,328,4.0,10.0,53,0.00,,---,0.00,VWS V14.00,2013-06-03 16:09:00,
2013-06-03 12:14:00,58.7,41.6,30.11,WNW,288,3.0,11.0,53,0.00,,---,0.00,VWS V14.00,2013-06-03 16:14:00,
2013-06-03 12:19:00,58.6,42.0,30.11,West,267,6.0,12.0,54,0.00,,---,0.00,VWS V14.00,2013-06-03 16:19:00,
2013-06-03 12:24:00,59.1,42.5,30.10,WSW,257,5.0,12.0,54,0.00,,---,0.00,VWS V14.00,2013-06-03 16:24:00,
2013-06-03 12:29:00,59.3,42.2,30.11,WSW,258,5.0,7.0,53,0.00,,---,0.00,VWS V14.00,2013-06-03 16:29:00,
2013-06-03 12:30:00,59.2,41.6,30.11,West,261,2.0,12.0,52,0.00,,---,0.00,VWS V14.00,2013-06-03 16:30:00,
2013-06-03 12:34:00,59.2,42.1,30.10,West,262,6.0,11.0,53,0.00,,---,0.00,VWS V14.00,2013-06-03 16:34:00,
2013-06-03 12:39:00,59.3,42.2,30.10,West,262,5.0,11.0,53,0.00,,---,0.00,VWS V14.00,2013-06-03 16:39:00,
2013-06-03 12:44:00,59.4,42.3,30.10,West,263,5.0,11.0,53,0.00,,---,0.00,VWS V14.00,2013-06-03 16:44:00,
2013-06-03 12:49:00,60.0,42.3,30.10,West,259,9.0,11.0,52,0.00,,---,0.00,VWS V14.00,2013-06-03 16:49:00,
2013-06-03 12:54:00,60.7,42.5,30.10,WNW,294,4.0,11.0,51,0.00,,---,0.00,VWS V14.00,2013-06-03 16:54:00,
2013-06-03 12:59:00,61.0,41.7,30.10,SW,234,2.0,8.0,49,0.00,,---,0.00,VWS V14.00,2013-06-03 16:59:00,
2013-06-03 13:00:00,61.0,42.2,30.10,WSW,251,6.0,11.0,50,0.00,,---,0.00,VWS V14.00,2013-06-03 17:00:00,
2013-06-03 13:04:00,61.1,42.3,30.10,WNW,290,5.0,10.0,50,0.00,,---,0.00,VWS V14.00,2013-06-03 17:04:00,
2013-06-03 13:09:00,61.0,41.7,30.10,West,265,8.0,14.0,49,0.00,,---,0.00,VWS V14.00,2013-06-03 17:09:00,
2013-06-03 13:14:00,60.9,41.1,30.10,SSW,197,5.0,14.0,48,0.00,,---,0.00,VWS V14.00,2013-06-03 17:14:00,
2013-06-03 13:19:00,61.0,41.2,30.09,NW,304,6.0,14.0,48,0.00,,---,0.00,VWS V14.00,2013-06-03 17:19:00,
2013-06-03 13:24:00,61.0,40.7,30.09,West,270,6.0,14.0,47,0.00,,---,0.00,VWS V14.00,2013-06-03 17:24:00,
2013-06-03 13:29:00,61.7,41.3,30.09,WNW,296,7.0,9.0,47,0.00,,---,0.00,VWS V14.00,2013-06-03 17:29:00,
2013-06-03 13:30:00,61.3,41.5,30.09,West,263,4.0,14.0,48,0.00,,---,0.00,VWS V14.00,2013-06-03 17:30:00,
2013-06-03 13:34:00,62.1,42.2,30.09,WSW,254,7.0,10.0,48,0.00,,---,0.00,VWS V14.00,2013-06-03 17:34:00,
2013-06-03 13:39:00,62.1,41.7,30.09,West,263,7.0,14.0,47,0.00,,---,0.00,VWS V14.00,2013-06-03 17:39:00,
2013-06-03 13:44:00,62.4,42.5,30.09,West,271,6.0,14.0,48,0.00,,---,0.00,VWS V14.00,2013-06-03 17:44:00,
2013-06-03 13:49:00,62.5,41.5,30.09,West,259,7.0,14.0,46,0.00,,---,0.00,VWS V14.00,2013-06-03 17:49:00,
2013-06-03 13:54:00,62.6,41.5,30.09,WNW,299,8.0,14.0,46,0.00,,---,0.00,VWS V14.00,2013-06-03 17:54:00,
2013-06-03 13:59:00,63.2,42.7,30.08,WSW,240,12.0,12.0,47,0.00,,---,0.00,VWS V14.00,2013-06-03 17:59:00,
2013-06-03 14:00:00,62.9,41.3,30.09,NW,321,9.0,14.0,45,0.00,,---,0.00,VWS V14.00,2013-06-03 18:00:00,
2013-06-03 14:04:00,63.0,41.3,30.08,SSW,205,4.0,12.0,45,0.00,,---,0.00,VWS V14.00,2013-06-03 18:04:00,
2013-06-03 14:09:00,63.7,42.0,30.08,West,263,7.0,12.0,45,0.00,,---,0.00,VWS V14.00,2013-06-03 18:09:00,
2013-06-03 14:14:00,63.8,41.5,30.08,NW,320,6.0,12.0,44,0.00,,---,0.00,VWS V14.00,2013-06-03 18:14:00,
2013-06-03 14:19:00,63.3,42.2,30.08,WSW,239,5.0,12.0,46,0.00,,---,0.00,VWS V14.00,2013-06-03 18:19:00,
2013-06-03 14:24:00,63.7,42.0,30.07,SW,232,3.0,12.0,45,0.00,,---,0.00,VWS V14.00,2013-06-03 18:24:00,
2013-06-03 14:29:00,63.9,41.6,30.07,WSW,249,4.0,5.0,44,0.00,,---,0.00,VWS V14.00,2013-06-03 18:29:00,
2013-06-03 14:30:00,63.7,41.4,30.07,West,269,4.0,12.0,44,0.00,,---,0.00,VWS V14.00,2013-06-03 18:30:00,
2013-06-03 14:34:00,64.1,41.8,30.07,WNW,292,8.0,14.0,44,0.00,,---,0.00,VWS V14.00,2013-06-03 18:34:00,
2013-06-03 14:39:00,64.1,42.3,30.07,NW,323,5.0,14.0,45,0.00,,---,0.00,VWS V14.00,2013-06-03 18:39:00,
2013-06-03 14:44:00,64.4,42.0,30.07,West,267,5.0,14.0,44,0.00,,---,0.00,VWS V14.00,2013-06-03 18:44:00,
2013-06-03 14:49:00,64.4,42.6,30.07,WSW,255,5.0,14.0,45,0.00,,---,0.00,VWS V14.00,2013-06-03 18:49:00,
2013-06-03 14:54:00,64.4,42.6,30.07,West,259,6.0,14.0,45,0.00,,---,0.00,VWS V14.00,2013-06-03 18:54:00,
2013-06-03 14:59:00,64.5,42.1,30.07,WSW,254,9.0,11.0,44,0.00,,---,0.00,VWS V14.00,2013-06-03 18:59:00,
2013-06-03 15:00:00,64.4,42.0,30.07,West,260,11.0,17.0,44,0.00,,---,0.00,VWS V14.00,2013-06-03 19:00:00,
2013-06-03 15:04:00,64.7,42.3,30.07,WNW,286,7.0,14.0,44,0.00,,---,0.00,VWS V14.00,2013-06-03 19:04:00,
2013-06-03 15:09:00,64.8,43.0,30.07,West,273,4.0,14.0,45,0.00,,---,0.00,VWS V14.00,2013-06-03 19:09:00,
2013-06-03 15:14:00,65.6,43.1,30.07,WNW,288,2.0,14.0,44,0.00,,---,0.00,VWS V14.00,2013-06-03 19:14:00,
2013-06-03 15:19:00,65.9,43.4,30.07,WNW,294,3.0,14.0,44,0.00,,---,0.00,VWS V14.00,2013-06-03 19:19:00,
2013-06-03 15:24:00,66.0,43.5,30.06,West,259,4.0,15.0,44,0.00,,---,0.00,VWS V14.00,2013-06-03 19:24:00,
2013-06-03 15:29:00,66.3,43.2,30.06,WNW,289,4.0,6.0,43,0.00,,---,0.00,VWS V14.00,2013-06-03 19:29:00,
2013-06-03 15:30:00,66.3,43.8,30.06,WNW,283,6.0,15.0,44,0.00,,---,0.00,VWS V14.00,2013-06-03 19:30:00,
2013-06-03 15:34:00,66.6,43.4,30.06,West,270,4.0,7.0,43,0.00,,---,0.00,VWS V14.00,2013-06-03 19:34:00,
2013-06-03 15:39:00,66.5,43.3,30.06,SW,229,8.0,12.0,43,0.00,,---,0.00,VWS V14.00,2013-06-03 19:39:00,
2013-06-03 15:44:00,65.9,42.2,30.05,WSW,253,3.0,12.0,42,0.00,,---,0.00,VWS V14.00,2013-06-03 19:44:00,
2013-06-03 15:49:00,66.1,43.0,30.05,West,261,5.0,12.0,43,0.00,,---,0.00,VWS V14.00,2013-06-03 19:49:00,
2013-06-03 15:54:00,66.7,42.9,30.05,WNW,292,5.0,12.0,42,0.00,,---,0.00,VWS V14.00,2013-06-03 19:54:00,
2013-06-03 15:59:00,66.9,42.5,30.05,West,274,4.0,7.0,41,0.00,,---,0.00,VWS V14.00,2013-06-03 19:59:00,
2013-06-03 16:00:00,66.9,43.1,30.05,WNW,296,2.0,12.0,42,0.00,,---,0.00,VWS V14.00,2013-06-03 20:00:00,
2013-06-03 16:04:00,66.9,43.1,30.05,WNW,298,3.0,8.0,42,0.00,,---,0.00,VWS V14.00,2013-06-03 20:04:00,
2013-06-03 16:09:00,67.6,44.3,30.05,West,276,7.0,13.0,43,0.00,,---,0.00,VWS V14.00,2013-06-03 20:09:00,
2013-06-03 16:14:00,67.1,43.3,30.05,NW,322,3.0,13.0,42,0.00,,---,0.00,VWS V14.00,2013-06-03 20:14:00,
2013-06-03 16:19:00,66.4,43.8,30.05,NW,305,3.0,13.0,44,0.00,,---,0.00,VWS V14.00,2013-06-03 20:19:00,
2013-06-03 16:24:00,66.7,42.9,30.05,North,360,1.0,13.0,42,0.00,,---,0.00,VWS V14.00,2013-06-03 20:24:00,
2013-06-03 16:29:00,67.7,44.4,30.04,North,360,9.0,9.0,43,0.00,,---,0.00,VWS V14.00,2013-06-03 20:29:00,
2013-06-03 16:30:00,67.3,44.1,30.05,North,360,1.0,13.0,43,0.00,,---,0.00,VWS V14.00,2013-06-03 20:30:00,
2013-06-03 16:34:00,67.7,43.8,30.04,WNW,290,3.0,9.0,42,0.00,,---,0.00,VWS V14.00,2013-06-03 20:34:00,
2013-06-03 16:39:00,67.5,43.6,30.04,West,278,6.0,9.0,42,0.00,,---,0.00,VWS V14.00,2013-06-03 20:39:00,
2013-06-03 16:44:00,67.7,44.4,30.04,NW,323,5.0,9.0,43,0.00,,---,0.00,VWS V14.00,2013-06-03 20:44:00,
2013-06-03 16:49:00,67.3,44.1,30.04,NW,314,3.0,10.0,43,0.00,,---,0.00,VWS V14.00,2013-06-03 20:49:00,
2013-06-03 16:54:00,66.9,44.3,30.04,West,275,9.0,10.0,44,0.00,,---,0.00,VWS V14.00,2013-06-03 20:54:00,
2013-06-03 16:59:00,67.1,43.9,30.04,NW,317,5.0,8.0,43,0.00,,---,0.00,VWS V14.00,2013-06-03 20:59:00,
2013-06-03 17:00:00,66.8,43.6,30.04,West,281,4.0,10.0,43,0.00,,---,0.00,VWS V14.00,2013-06-03 21:00:00,
2013-06-03 17:04:00,68.2,44.3,30.04,WNW,285,3.0,8.0,42,0.00,,---,0.00,VWS V14.00,2013-06-03 21:04:00,
2013-06-03 17:10:00,68.6,43.3,30.04,WSW,254,5.0,14.0,40,0.00,,---,0.00,VWS V14.00,2013-06-03 21:10:00,
2013-06-03 17:15:00,68.1,43.5,30.04,NW,312,4.0,14.0,41,0.00,,---,0.00,VWS V14.00,2013-06-03 21:15:00,
2013-06-03 17:20:00,68.0,44.7,30.04,NW,313,3.0,14.0,43,0.00,,---,0.00,VWS V14.00,2013-06-03 21:20:00,
2013-06-03 17:25:00,68.3,43.7,30.04,NNW,342,1.0,14.0,41,0.00,,---,0.00,VWS V14.00,2013-06-03 21:25:00,
2013-06-03 17:30:00,67.8,43.3,30.04,NW,315,3.0,11.0,41,0.00,,---,0.00,VWS V14.00,2013-06-03 21:30:00,
2013-06-03 17:35:00,66.9,43.7,30.04,West,281,6.0,11.0,43,0.00,,---,0.00,VWS V14.00,2013-06-03 21:35:00,
2013-06-03 17:40:00,66.8,44.2,30.03,West,279,3.0,11.0,44,0.00,,---,0.00,VWS V14.00,2013-06-03 21:40:00,
2013-06-03 17:45:00,67.2,44.0,30.03,NW,309,5.0,11.0,43,0.00,,---,0.00,VWS V14.00,2013-06-03 21:45:00,
2013-06-03 17:50:00,67.6,44.3,30.03,NNW,327,4.0,11.0,43,0.00,,---,0.00,VWS V14.00,2013-06-03 21:50:00,
2013-06-03 17:55:00,67.1,42.6,30.03,NNW,338,1.0,11.0,41,0.00,,---,0.00,VWS V14.00,2013-06-03 21:55:00,
2013-06-03 18:00:00,66.7,42.9,30.03,WNW,296,5.0,7.0,42,0.00,,---,0.00,VWS V14.00,2013-06-03 22:00:00,
2013-06-03 18:05:00,66.3,42.5,30.03,WNW,300,2.0,8.0,42,0.00,,---,0.00,VWS V14.00,2013-06-03 22:05:00,
2013-06-03 18:10:00,66.8,43.0,30.03,WNW,296,3.0,8.0,42,0.00,,---,0.00,VWS V14.00,2013-06-03 22:10:00,
2013-06-03 18:15:00,67.2,42.7,30.03,West,266,5.0,11.0,41,0.00,,---,0.00,VWS V14.00,2013-06-03 22:15:00,
2013-06-03 18:20:00,67.9,43.4,30.03,NW,307,4.0,11.0,41,0.00,,---,0.00,VWS V14.00,2013-06-03 22:20:00,
2013-06-03 18:25:00,68.3,42.4,30.03,NW,323,6.0,11.0,39,0.00,,---,0.00,VWS V14.00,2013-06-03 22:25:00,
2013-06-03 18:30:00,68.3,41.7,30.03,NW,311,5.0,8.0,38,0.00,,---,0.00,VWS V14.00,2013-06-03 22:30:00,
2013-06-03 18:35:00,68.7,43.4,30.03,North,355,7.0,9.0,40,0.00,,---,0.00,VWS V14.00,2013-06-03 22:35:00,
2013-06-03 18:40:00,68.6,42.7,30.03,WNW,288,7.0,13.0,39,0.00,,---,0.00,VWS V14.00,2013-06-03 22:40:00,
2013-06-03 18:45:00,68.4,40.4,30.03,NW,311,3.0,13.0,36,0.00,,---,0.00,VWS V14.00,2013-06-03 22:45:00,
2013-06-03 18:50:00,68.4,41.1,30.03,NW,315,3.0,13.0,37,0.00,,---,0.00,VWS V14.00,2013-06-03 22:50:00,
2013-06-03 18:55:00,68.1,41.6,30.03,NW,320,5.0,13.0,38,0.00,,---,0.00,VWS V14.00,2013-06-03 22:55:00,
2013-06-03 19:00:00,68.1,40.9,30.03,WSW,258,4.0,9.0,37,0.00,,---,0.00,VWS V14.00,2013-06-03 23:00:00,
2013-06-03 19:05:00,68.0,40.8,30.03,WNW,288,4.0,10.0,37,0.00,,---,0.00,VWS V14.00,2013-06-03 23:05:00,
2013-06-03 19:10:00,67.9,40.7,30.04,West,277,4.0,10.0,37,0.00,,---,0.00,VWS V14.00,2013-06-03 23:10:00,
2013-06-03 19:15:00,68.3,41.0,30.04,NW,319,2.0,10.0,37,0.00,,---,0.00,VWS V14.00,2013-06-03 23:15:00,
2013-06-03 19:20:00,68.3,41.0,30.04,NW,312,4.0,10.0,37,0.00,,---,0.00,VWS V14.00,2013-06-03 23:20:00,
2013-06-03 19:25:00,68.1,42.2,30.04,WNW,294,6.0,10.0,39,0.00,,---,0.00,VWS V14.00,2013-06-03 23:25:00,
2013-06-03 19:30:00,67.6,41.1,30.04,WNW,300,4.0,11.0,38,0.00,,---,0.00,VWS V14.00,2013-06-03 23:30:00,
2013-06-03 19:35:00,66.9,41.2,30.04,WNW,296,6.0,12.0,39,0.00,,---,0.00,VWS V14.00,2013-06-03 23:35:00,
2013-06-03 19:40:00,66.0,40.4,30.04,NW,309,6.0,12.0,39,0.00,,---,0.00,VWS V14.00,2013-06-03 23:40:00,
2013-06-03 19:45:00,65.7,41.4,30.05,NW,319,2.0,12.0,41,0.00,,---,0.00,VWS V14.00,2013-06-03 23:45:00,
2013-06-03 19:50:00,65.4,40.5,30.05,NW,321,4.0,12.0,40,0.00,,---,0.00,VWS V14.00,2013-06-03 23:50:00,
2013-06-03 19:55:00,65.3,41.6,30.05,North,349,8.0,12.0,42,0.00,,---,0.00,VWS V14.00,2013-06-03 23:55:00,
2013-06-03 20:00:00,65.0,42.6,30.05,WNW,293,0.0,8.0,44,0.00,,---,0.00,VWS V14.00,2013-06-04 00:00:00,
2013-06-03 20:05:00,64.8,42.4,30.05,NW,305,1.0,8.0,44,0.00,,---,0.00,VWS V14.00,2013-06-04 00:05:00,
2013-06-03 20:10:00,64.5,42.1,30.05,NW,313,1.0,8.0,44,0.00,,---,0.00,VWS V14.00,2013-06-04 00:10:00,
2013-06-03 20:15:00,64.3,41.9,30.06,NW,315,2.0,8.0,44,0.00,,---,0.00,VWS V14.00,2013-06-04 00:15:00,
2013-06-03 20:20:00,64.2,42.4,30.06,NW,318,1.0,8.0,45,0.00,,---,0.00,VWS V14.00,2013-06-04 00:20:00,
2013-06-03 20:25:00,64.1,42.3,30.06,NW,317,1.0,8.0,45,0.00,,---,0.00,VWS V14.00,2013-06-04 00:25:00,
2013-06-03 20:30:00,63.9,42.7,30.06,NW,321,3.0,4.0,46,0.00,,---,0.00,VWS V14.00,2013-06-04 00:30:00,
2013-06-03 20:35:00,63.6,42.5,30.06,NW,323,1.0,4.0,46,0.00,,---,0.00,VWS V14.00,2013-06-04 00:35:00,
2013-06-03 20:40:00,63.4,42.3,30.06,NNW,331,1.0,5.0,46,0.00,,---,0.00,VWS V14.00,2013-06-04 00:40:00,
2013-06-03 20:45:00,63.2,42.7,30.07,NW,322,1.0,5.0,47,0.00,,---,0.00,VWS V14.00,2013-06-04 00:45:00,
2013-06-03 20:50:00,63.1,42.6,30.07,NW,321,1.0,5.0,47,0.00,,---,0.00,VWS V14.00,2013-06-04 00:50:00,
2013-06-03 20:55:00,62.9,41.8,30.06,NW,325,3.0,5.0,46,0.00,,---,0.00,VWS V14.00,2013-06-04 00:55:00,
2013-06-03 21:00:00,62.8,41.7,30.06,NW,325,0.0,3.0,46,0.00,,---,0.00,VWS V14.00,2013-06-04 01:00:00,
2013-06-03 21:05:00,62.6,41.5,30.07,WNW,296,2.0,7.0,46,0.00,,---,0.00,VWS V14.00,2013-06-04 01:05:00,
2013-06-03 21:10:00,62.3,41.8,30.07,NNW,342,2.0,7.0,47,0.00,,---,0.00,VWS V14.00,2013-06-04 01:10:00,
2013-06-03 21:15:00,62.1,41.7,30.07,NNW,329,2.0,7.0,47,0.00,,---,0.00,VWS V14.00,2013-06-04 01:15:00,
2013-06-03 21:20:00,61.8,41.9,30.07,NNW,336,1.0,7.0,48,0.00,,---,0.00,VWS V14.00,2013-06-04 01:20:00,
2013-06-03 21:25:00,61.5,42.2,30.07,NNW,338,1.0,7.0,49,0.00,,---,0.00,VWS V14.00,2013-06-04 01:25:00,
2013-06-03 21:30:00,61.3,42.0,30.08,NNW,336,1.0,4.0,49,0.00,,---,0.00,VWS V14.00,2013-06-04 01:30:00,
2013-06-03 21:35:00,60.9,41.6,30.08,NNW,342,0.0,5.0,49,0.00,,---,0.00,VWS V14.00,2013-06-04 01:35:00,
2013-06-03 21:40:00,60.5,41.8,30.08,NNW,342,0.0,5.0,50,0.00,,---,0.00,VWS V14.00,2013-06-04 01:40:00,
2013-06-03 21:45:00,60.2,41.5,30.08,NNW,342,1.0,5.0,50,0.00,,---,0.00,VWS V14.00,2013-06-04 01:45:00,
2013-06-03 21:50:00,59.9,41.8,30.08,NNW,342,3.0,5.0,51,0.00,,---,0.00,VWS V14.00,2013-06-04 01:50:00,
2013-06-03 21:55:00,59.8,41.7,30.09,NNW,342,0.0,5.0,51,0.00,,---,0.00,VWS V14.00,2013-06-04 01:55:00,
2013-06-03 22:00:00,59.5,41.9,30.09,NNW,342,0.0,2.0,52,0.00,,---,0.00,VWS V14.00,2013-06-04 02:00:00,
2013-06-03 22:05:00,59.3,42.2,30.09,NNW,342,0.0,2.0,53,0.00,,---,0.00,VWS V14.00,2013-06-04 02:05:00,
2013-06-03 22:10:00,58.9,41.8,30.09,NNW,342,0.0,2.0,53,0.00,,---,0.00,VWS V14.00,2013-06-04 02:10:00,
2013-06-03 22:15:00,58.7,42.1,30.09,NNW,342,1.0,3.0,54,0.00,,---,0.00,VWS V14.00,2013-06-04 02:15:00,
2013-06-03 22:20:00,58.5,41.9,30.09,NNW,342,0.0,3.0,54,0.00,,---,0.00,VWS V14.00,2013-06-04 02:20:00,
2013-06-03 22:25:00,58.3,42.2,30.10,NNW,342,0.0,3.0,55,0.00,,---,0.00,VWS V14.00,2013-06-04 02:25:00,
2013-06-03 22:30:00,57.9,41.8,30.10,NNW,342,0.0,1.0,55,0.00,,---,0.00,VWS V14.00,2013-06-04 02:30:00,
2013-06-03 22:35:00,57.6,41.6,30.10,NNW,342,0.0,1.0,55,0.00,,---,0.00,VWS V14.00,2013-06-04 02:35:00,
2013-06-03 22:40:00,57.3,43.1,30.11,NNW,342,0.0,1.0,59,0.00,,---,0.00,VWS V14.00,2013-06-04 02:40:00,
2013-06-03 22:45:00,56.7,43.0,30.11,NNW,342,0.0,1.0,60,0.00,,---,0.00,VWS V14.00,2013-06-04 02:45:00,
2013-06-03 22:50:00,56.2,43.0,30.11,NNW,342,0.0,1.0,61,0.00,,---,0.00,VWS V14.00,2013-06-04 02:50:00,
2013-06-03 22:55:00,55.8,43.0,30.11,NNW,342,0.0,1.0,62,0.00,,---,0.00,VWS V14.00,2013-06-04 02:55:00,
2013-06-03 23:00:00,55.6,43.2,30.11,NNW,342,0.0,0.0,63,0.00,,---,0.00,VWS V14.00,2013-06-04 03:00:00,
2013-06-03 23:05:00,55.3,42.9,30.11,NNW,342,0.0,0.0,63,0.00,,---,0.00,VWS V14.00,2013-06-04 03:05:00,
2013-06-03 23:10:00,55.0,43.1,30.12,NNW,342,0.0,0.0,64,0.00,,---,0.00,VWS V14.00,2013-06-04 03:10:00,
2013-06-03 23:15:00,54.5,42.6,30.12,NNW,342,0.0,0.0,64,0.00,,---,0.00,VWS V14.00,2013-06-04 03:15:00,
2013-06-03 23:20:00,53.9,42.8,30.12,NNW,342,0.0,0.0,66,0.00,,---,0.00,VWS V14.00,2013-06-04 03:20:00,
2013-06-03 23:25:00,53.5,42.4,30.12,NNW,342,0.0,0.0,66,0.00,,---,0.00,VWS V14.00,2013-06-04 03:25:00,
2013-06-03 23:30:00,53.2,42.5,30.12,NNW,342,0.0,0.0,67,0.00,,---,0.00,VWS V14.00,2013-06-04 03:30:00,
2013-06-03 23:35:00,53.3,42.6,30.12,NNW,342,0.0,1.0,67,0.00,,---,0.00,VWS V14.00,2013-06-04 03:35:00,
2013-06-03 23:40:00,53.4,42.3,30.12,NNW,342,0.0,1.0,66,0.00,,---,0.00,VWS V14.00,2013-06-04 03:40:00,
2013-06-03 23:45:00,53.3,42.6,30.12,NNW,342,0.0,1.0,67,0.00,,---,0.00,VWS V14.00,2013-06-04 03:45:00,
2013-06-03 23:50:00,53.2,42.9,30.12,NNW,342,0.0,1.0,68,0.00,,---,0.00,VWS V14.00,2013-06-04 03:50:00,
2013-06-03 23:56:00,53.1,42.5,30.12,NNW,342,0.0,1.0,67,0.00,,---,0.00,VWS V14.00,2013-06-04 03:56:00,